Location: Clanezzo
(45.7500°N, 9.6000°E)
Time: 23:46:12
(UTC+00:00)

SPOT 5 - Pass Details

Date: 12 May 2021
Orbit: 623 x 815 km, 98.2° (Epoch: 18 June)

Event Time Altitude Azimuth Distance (km) Brightness Sun altitude
Exits shadow 20:47:35 30° 152° (SSE) 1,357 3.7 -17.4°
Maximum altitude 20:50:08 73° 74° (ENE) 823 3.0 -17.7°
Drops below altitude 10° 20:55:26 10° 350° (N) 2,395 6.5 -18.2°
Sets 20:57:50 0° 349° (NNW) 3,342 7.5 -18.5°
